[[{"header":{"parameterUnit":"m.s-1","parameterCategory":1,"la1":30.2991,"la2":30.254,"lo1":-89.0895,"lo2":-89.0444,"dy":0.0017,"dx":0.0017,"nx":28,"ny":28,"refTime":"2023-09-22T03:00:00:Z","depth":0,"parameterNumber":2,"parameterNumberName":"U-component_of_WINDS"},"data":[0,0,0,0,0,0,0,0,0,0,0,0,0,0,0,0,0,0,0,0,0,0,0,0,0,0,0,0,0,0,0,0,0,0,0,0,0,0,0,0,0,0,0,0,0,0,0,0,0,0,0,0,0,0,0,0,0,0,-3.7751,-3.775,0,-3.7686,-3.7685,-3.7684,-3.749,-3.7486,-3.7481,-3.7477,-3.7416,-3.7418,-3.7421,0,0,0,0,0,0,0,0,0,0,0,0,0,-3.7711,-3.7713,-3.7751,-3.775,-3.7749,-3.7686,-3.7685,-3.7684,-3.7491,-3.7485,-3.748,-3.7475,-3.7415,-3.7418,-3.7421,0,0,0,0,0,0,0,0,0,0,0,0,0,-3.7696,-3.7714,-3.7751,-3.7645,-3.7634,-3.7686,-3.7685,-3.7684,-3.7492,-3.7485,-3.7479,-3.7473,-3.7414,-3.7418,-3.7421,-3.7572,0,0,-3.7432,-3.7434,0,0,0,0,0,0,0,0,-3.7697,-3.7698,-3.7661,-3.7652,-3.7641,-3.7589,-3.7648,-3.7647,-3.7493,-3.7546,-3.7477,-3.747,-3.7479,-3.7477,-3.7479,-3.7569,-3.7566,-3.7432,-3.7435,-3.7436,-3.7437,0,0,0,0,0,0,0,-3.7698,-3.7699,-3.7725,-3.7661,-3.7648,-3.7602,-3.7593,-3.7647,-3.755,-3.7541,-3.7527,-3.7522,-3.7472,-3.7476,-3.7476,-3.7565,-3.7432,-3.7435,-3.7438,-3.7439,-3.7775,-3.7782,0,0,0,0,0,0,-3.7714,-3.7701,-3.7727,-3.7723,-3.7653,-3.7608,-3.7597,-3.7612,-3.7548,-3.7532,-3.7527,-3.7513,-3.7473,-3.7472,-3.7473,-3.7644,-3.7436,-3.7439,-3.7441,-3.7768,-3.7777,-3.7784,0,0,0,0,0,0,-3.7714,-3.7718,-3.773,-3.7708,-3.7706,-3.7615,-3.7634,-3.7615,-3.7618,-3.7538,-3.752,-3.7548,-3.7468,-3.7468,-3.7548,-3.7639,-3.7441,-3.7444,-3.776,-3.7771,-3.778,-3.7989,0,0,0,0,0,0,-3.7714,-3.7719,-3.7774,-3.7711,-3.7708,-3.7805,-3.7639,-3.7618,-3.7624,-3.7604,-3.7553,-3.7539,-3.7463,-3.7544,-3.7552,-3.7641,-3.7447,-3.7752,-3.7765,-3.7777,-3.7973,-3.8005,-3.8032,0,0,0,0,0,-3.7713,-3.7837,-3.7778,-3.7782,-3.7775,-3.781,-3.7809,-3.7718,-3.7632,-3.7687,-3.7636,-3.754,-3.7629,-3.7554,-3.7561,-3.7653,-3.7746,-3.7761,-3.7776,-3.796,-3.7999,-3.8031,0,0,0,0,0,0,-3.7915,-3.7826,-3.776,-3.7867,-3.7848,-3.7777,-3.7844,-3.7762,-3.7768,-3.7749,-3.7638,-3.7628,-3.7724,-3.7696,-3.7614,-3.7795,-3.7671,-3.7689,-3.7809,-3.7845,-3.7874,-3.7878,-3.745,0,0,0,0,0,-3.7971,-3.8006,-3.7928,-3.803,-3.8023,-3.7936,-3.7948,-3.788,-3.7856,-3.7847,-3.7801,-3.7783,-3.7806,-3.7824,-3.7842,-3.7969,-3.7955,-3.8036,-3.8065,-3.8089,-3.8105,-3.817,-3.8205,-3.7834,-3.7834,-3.7834,0,0,-3.8089,-3.8045,-3.8074,-3.8069,-3.8046,-3.8085,-3.793,-3.7979,-3.8008,-3.7855,-3.7926,-3.7893,-3.7866,-3.797,-3.8014,-3.795,-3.8205,-3.8109,-3.8129,-3.8131,-3.819,-3.8225,-3.8256,-3.7845,-3.7843,-3.7841,0,0,-3.8324,-3.8295,-3.8375,-3.8355,-3.8321,-3.8263,-3.8283,-3.8225,-3.8196,-3.8267,-3.8153,-3.8186,-3.8229,-3.8214,-3.8212,-3.8442,-3.8354,-3.8451,-3.8604,-3.8668,-3.8698,-3.8723,-3.8804,-3.8835,-3.8468,-3.8468,-3.8469,0,-3.8475,-3.8528,-3.8428,-3.8483,-3.8485,-3.8347,-3.8429,-3.8415,-3.839,-3.8395,-3.8324,-3.8374,-3.8346,-3.8444,-3.8501,-3.8504,-3.8524,-3.8456,-3.8701,-3.8726,-3.8748,-3.8824,-3.8855,-3.848,-3.8479,-3.8478,-3.8477,0,-3.8715,-3.8754,-3.8824,-3.8801,-3.881,-3.888,-3.8791,-3.8813,-3.8745,-3.8695,-3.8769,-3.873,-3.8737,-3.8756,-3.869,-3.8846,-3.8807,-3.8721,-3.8594,-3.8797,-3.8867,-3.8895,-3.8497,-3.8493,-3.849,-3.8487,0,0,-3.9073,-3.8994,-3.9021,-3.9009,-3.8962,-3.8991,-3.9055,-3.906,-3.9081,-3.9069,-3.912,-3.916,-3.9079,-3.9077,-3.9009,-3.9067,-3.9251,-3.8972,-3.897,-3.9025,-3.9419,-3.9483,-3.9519,-3.9193,-3.9198,-3.9202,-3.9421,0,-3.9294,-3.9395,-3.9307,-3.9426,-3.9461,-3.9332,-3.9387,-3.9365,-3.9321,-3.9345,-3.9296,-3.9326,-3.9218,-3.9216,-3.9267,-3.9218,-3.9328,-3.9201,-3.924,-3.9242,-3.9249,-3.9555,-3.9623,-3.9831,-3.9448,-3.9453,-3.9456,0,-3.9564,-3.9562,-3.9684,-3.9629,-3.9641,-3.9692,-3.9689,-3.9714,-3.9688,-3.9651,-3.965,-3.9567,-3.9626,-3.9504,-3.9586,-3.9501,-3.9512,-3.9491,-3.9497,-3.9495,-3.936,-3.9562,-3.9896,-3.9927,-3.9498,-3.9495,-3.9492,0,-3.9812,-3.984,-3.9916,-3.991,-3.9849,-3.9887,-3.9864,-3.9831,-3.984,-3.9839,-3.9844,-3.9851,-3.9855,-3.9863,-3.9785,-3.9703,-3.9877,-3.9748,-3.9848,-3.9851,-3.9889,-3.9888,-4.0229,-3.99,-3.9899,-3.9899,-3.9898,0,-4.0066,-4.0145,-4.0026,-4.0073,-4.0159,-4.0058,-4.0147,-4.011,-4.0082,-4.0121,-4.0011,-4.005,-3.9944,-3.9973,-3.9912,-3.9989,-3.9992,-3.9965,-3.9947,-3.9974,-3.9977,-3.9978,-3.9961,-3.9907,-3.9905,-3.9903,-3.9902,0,-4.0356,-4.0279,-4.0353,-4.0289,-4.0275,-4.0341,-4.0286,-4.0328,-4.0276,-4.0327,-4.0333,-4.0253,-4.0281,-4.0203,-4.022,-4.0179,-4.029,-4.025,-4.0298,-4.0286,-4.039,-4.0381,-4.0743,-4.0785,-4.0431,-4.0435,-4.0438,0,-4.0522,-4.058,-4.0521,-4.0538,-4.052,-4.055,-4.0557,-4.0462,-4.0475,-4.045,-4.0496,-4.0514,-4.0523,-4.0575,-4.0519,-4.0532,-4.0491,-4.0617,-4.0492,-4.0516,-4.0491,-4.0488,-4.0493,-4.0642,-4.0646,-4.065,-4.0653,0,-4.0826,-4.0785,-4.0799,-4.0802,-4.0814,-4.0812,-4.0802,-4.0823,-4.0721,-4.0742,-4.0768,-4.0775,-4.0792,-4.0812,-4.0813,-4.079,-4.0706,-4.0693,-4.0716,-4.0743,-4.0768,-4.0755,-4.0367,-4.0685,-4.0681,-4.0679,-4.0677,-4.0676,-4.1057,-4.1102,-4.1068,-4.1088,-4.1071,-4.1064,-4.11,-4.1052,-4.1072,-4.1076,-4.102,-4.1059,-4.1032,-4.1023,-4.101,-4.104,-4.0982,-4.1017,-4.1025,-4.1035,-4.1052,-4.0765,-4.104,-4.1039,-4.1038,-4.1037,-4.1036,0,-4.1353,-4.1325,-4.1345,-4.1333,-4.135,-4.1268,-4.1253,-4.1273,-4.1307,-4.1289,-4.13,-4.1331,-4.1351,-4.1298,-4.1309,-4.1344,-4.1305,-4.135,-4.1346,-4.1342,-4.1103,-4.1081,-4.1381,-4.1381,-4.1381,-4.1381,-4.1381,-4.138,-4.1509,-4.158,-4.1536,-4.1599,-4.157,-4.1605,-4.1604,-4.1598,-4.1582,-4.1621,-4.1636,-4.1601,-4.1569,-4.1577,-4.1592,-4.1576,-4.1585,-4.1644,-4.1614,-4.1392,-4.1359,-4.1327,-4.1305,-4.1647,-4.1647,-4.1849,-4.1851,-4.1853]},{"header":{"parameterUnit":"m.s-1","parameterCategory":1,"la1":30.2991,"la2":30.254,"lo1":-89.0895,"lo2":-89.0444,"dy":0.0017,"dx":0.0017,"nx":28,"ny":28,"refTime":"2023-09-22T03:00:00:Z","depth":0,"parameterNumber":3,"parameterNumberName":"V-component_of_WINDS"},"data":[0,0,0,0,0,0,0,0,0,0,0,0,0,0,0,0,0,0,0,0,0,0,0,0,0,0,0,0,0,0,0,0,0,0,0,0,0,0,0,0,0,0,0,0,0,0,0,0,0,0,0,0,0,0,0,0,0,0,-0.8865,-0.8867,0,-0.9031,-0.9033,-0.9035,-0.9128,-0.9128,-0.9129,-0.9129,-0.9301,-0.9305,-0.931,0,0,0,0,0,0,0,0,0,0,0,0,0,-0.863,-0.8634,-0.8865,-0.8867,-0.8869,-0.9031,-0.9033,-0.9035,-0.9128,-0.9128,-0.9129,-0.9129,-0.93,-0.9305,-0.931,0,0,0,0,0,0,0,0,0,0,0,0,0,-0.8757,-0.8635,-0.8865,-0.8935,-0.8943,-0.903,-0.9033,-0.9036,-0.9128,-0.9128,-0.9129,-0.9129,-0.9298,-0.9304,-0.9311,-0.9342,0,0,-0.9331,-0.9333,0,0,0,0,0,0,0,0,-0.875,-0.8766,-0.8922,-0.893,-0.8939,-0.9059,-0.9014,-0.9139,-0.9128,-0.9058,-0.9129,-0.9129,-0.922,-0.9233,-0.9264,-0.935,-0.9358,-0.9331,-0.9335,-0.9338,-0.934,0,0,0,0,0,0,0,-0.8741,-0.8759,-0.8931,-0.8924,-0.8935,-0.8958,-0.8977,-0.9038,-0.9135,-0.9064,-0.9071,-0.9089,-0.9225,-0.9257,-0.9268,-0.936,-0.9331,-0.9337,-0.9341,-0.9343,-0.9481,-0.9481,0,0,0,0,0,0,-0.8721,-0.8751,-0.8926,-0.8936,-0.8844,-0.8962,-0.8983,-0.902,-0.9134,-0.9152,-0.9089,-0.9093,-0.9246,-0.9261,-0.9275,-0.9319,-0.9338,-0.9344,-0.9348,-0.9482,-0.9481,-0.9481,0,0,0,0,0,0,-0.8715,-0.8735,-0.8919,-0.8846,-0.8871,-0.8966,-0.9007,-0.9023,-0.9055,-0.9153,-0.9171,-0.9103,-0.9247,-0.9266,-0.9325,-0.9327,-0.9347,-0.9353,-0.9482,-0.9481,-0.9481,-0.9408,0,0,0,0,0,0,-0.8708,-0.8733,-0.8745,-0.8845,-0.8874,-0.8965,-0.9007,-0.9026,-0.9066,-0.9073,-0.9172,-0.9188,-0.9249,-0.9314,-0.9331,-0.9336,-0.9358,-0.9482,-0.9482,-0.9481,-0.9411,-0.9405,-0.9401,0,0,0,0,0,-0.8699,-0.8719,-0.8746,-0.8766,-0.8892,-0.8965,-0.8982,-0.905,-0.9066,-0.908,-0.9142,-0.9185,-0.9323,-0.932,-0.9339,-0.9346,-0.9482,-0.9482,-0.9481,-0.9413,-0.9406,-0.9401,0,0,0,0,0,0,-0.8618,-0.8733,-0.8764,-0.8816,-0.888,-0.898,-0.9,-0.9041,-0.9102,-0.9106,-0.9189,-0.921,-0.9261,-0.931,-0.9304,-0.9382,-0.9408,-0.9411,-0.9349,-0.9343,-0.9338,-0.9326,-0.9363,0,0,0,0,0,-0.8606,-0.8655,-0.8753,-0.879,-0.882,-0.8904,-0.8939,-0.8985,-0.9055,-0.9083,-0.915,-0.9216,-0.9275,-0.9312,-0.9371,-0.9418,-0.9441,-0.9432,-0.9427,-0.9422,-0.9424,-0.9453,-0.945,-0.9479,-0.9479,-0.9479,0,0,-0.8582,-0.8651,-0.8677,-0.8775,-0.883,-0.8879,-0.8926,-0.8977,-0.9015,-0.9091,-0.915,-0.9202,-0.9282,-0.9334,-0.9361,-0.9376,-0.9421,-0.9422,-0.9417,-0.9422,-0.9452,-0.9449,-0.9447,-0.9479,-0.9479,-0.9479,0,0,-0.8563,-0.862,-0.8656,-0.871,-0.8792,-0.8848,-0.8856,-0.8951,-0.8988,-0.9048,-0.9107,-0.9153,-0.9252,-0.9306,-0.9347,-0.9348,-0.939,-0.9365,-0.9338,-0.9365,-0.9363,-0.9361,-0.9361,-0.936,-0.9366,-0.9366,-0.9366,0,-0.8523,-0.8599,-0.867,-0.8717,-0.8759,-0.8829,-0.8867,-0.8916,-0.9013,-0.904,-0.9056,-0.9181,-0.924,-0.9306,-0.9306,-0.9337,-0.935,-0.9354,-0.9357,-0.9356,-0.9356,-0.9357,-0.9357,-0.9363,-0.9363,-0.9363,-0.9364,0,-0.8546,-0.8597,-0.8617,-0.8708,-0.8752,-0.8794,-0.8872,-0.8908,-0.8951,-0.9005,-0.9066,-0.9139,-0.9214,-0.9233,-0.9276,-0.9305,-0.9312,-0.9341,-0.9368,-0.9348,-0.9351,-0.9352,-0.9358,-0.9359,-0.936,-0.9361,0,0,-0.8481,-0.861,-0.8616,-0.8658,-0.8753,-0.8795,-0.884,-0.8913,-0.8942,-0.9007,-0.9047,-0.9129,-0.9156,-0.9202,-0.9251,-0.9275,-0.927,-0.9301,-0.9304,-0.9293,-0.9308,-0.9285,-0.9285,-0.9299,-0.9299,-0.9299,-0.9301,0,-0.8476,-0.856,-0.8625,-0.8684,-0.8733,-0.88,-0.8839,-0.8902,-0.8954,-0.9003,-0.9061,-0.9117,-0.9149,-0.9177,-0.9203,-0.9265,-0.9275,-0.9266,-0.9338,-0.9339,-0.9315,-0.9286,-0.9263,-0.9261,-0.9303,-0.9303,-0.9303,0,-0.8482,-0.8542,-0.8606,-0.8696,-0.8719,-0.8753,-0.8824,-0.8871,-0.8944,-0.898,-0.903,-0.9081,-0.9132,-0.9154,-0.9226,-0.9219,-0.9252,-0.9287,-0.9288,-0.9298,-0.932,-0.9295,-0.9262,-0.9262,-0.9305,-0.9305,-0.9305,0,-0.8428,-0.8526,-0.8577,-0.8611,-0.8717,-0.8739,-0.8784,-0.8857,-0.8897,-0.8959,-0.8986,-0.9054,-0.9091,-0.9143,-0.9211,-0.922,-0.9276,-0.9303,-0.9308,-0.9306,-0.9317,-0.9315,-0.9289,-0.9337,-0.9337,-0.9337,-0.9337,0,-0.8416,-0.8452,-0.8554,-0.8585,-0.8628,-0.8702,-0.8743,-0.8794,-0.8858,-0.8901,-0.8964,-0.9003,-0.909,-0.914,-0.9194,-0.9245,-0.9262,-0.9293,-0.9307,-0.9287,-0.9283,-0.931,-0.9312,-0.9337,-0.9337,-0.9337,-0.9337,0,-0.8363,-0.8433,-0.8492,-0.8587,-0.8612,-0.8639,-0.8721,-0.8754,-0.8809,-0.8862,-0.8879,-0.8965,-0.9027,-0.91,-0.9186,-0.9222,-0.9269,-0.9289,-0.9243,-0.9252,-0.9252,-0.9251,-0.9242,-0.9245,-0.9291,-0.929,-0.929,0,-0.8351,-0.838,-0.8477,-0.851,-0.8553,-0.8605,-0.8645,-0.872,-0.8759,-0.8843,-0.8866,-0.8933,-0.899,-0.9085,-0.9156,-0.9222,-0.9245,-0.9237,-0.9255,-0.9235,-0.9245,-0.9242,-0.9246,-0.9232,-0.9231,-0.9231,-0.923,0,-0.8321,-0.8354,-0.8409,-0.8475,-0.8521,-0.8577,-0.8636,-0.866,-0.8746,-0.8787,-0.885,-0.8894,-0.8981,-0.9046,-0.9121,-0.9169,-0.9214,-0.9224,-0.9228,-0.9209,-0.9181,-0.9196,-0.923,-0.9224,-0.9224,-0.9225,-0.9225,-0.9225,-0.8289,-0.8318,-0.8391,-0.845,-0.8501,-0.8555,-0.859,-0.8649,-0.8703,-0.8779,-0.8819,-0.8882,-0.8954,-0.9059,-0.9105,-0.9155,-0.9171,-0.9178,-0.9179,-0.918,-0.9174,-0.9173,-0.9169,-0.917,-0.917,-0.917,-0.917,0,-0.8263,-0.8313,-0.8366,-0.8446,-0.8492,-0.8529,-0.8596,-0.8633,-0.8686,-0.8749,-0.8804,-0.8876,-0.894,-0.9015,-0.9083,-0.9109,-0.9132,-0.9125,-0.9124,-0.9134,-0.9156,-0.9145,-0.9105,-0.9105,-0.9105,-0.9105,-0.9105,-0.9105,-0.8255,-0.8306,-0.8347,-0.8424,-0.8475,-0.8535,-0.857,-0.862,-0.8671,-0.8748,-0.8801,-0.8849,-0.8917,-0.8991,-0.9051,-0.9072,-0.9094,-0.9081,-0.9107,-0.9127,-0.9132,-0.9138,-0.9128,-0.9085,-0.9085,-0.9081,-0.9081,-0.9081]}]]